[[{"header":{"parameterUnit":"m.s-1","parameterCategory":1,"la1":30.2991,"la2":30.254,"lo1":-89.0895,"lo2":-89.0444,"dy":0.0017,"dx":0.0017,"nx":28,"ny":28,"refTime":"2024-09-29T21:00:00:Z","depth":0,"parameterNumber":2,"parameterNumberName":"U-component_of_WINDS"},"data":[0,0,0,0,0,0,0,0,0,0,0,0,0,0,0,0,0,0,0,0,0,0,0,0,0,0,0,0,0,0,0,0,0,0,0,0,0,0,0,0,0,0,0,0,0,0,0,0,0,0,0,0,0,0,0,0,0,0,1.6033,1.6033,0,1.6066,1.6066,1.6066,1.6036,1.6034,1.6033,1.6032,1.6068,1.607,1.6072,0,0,0,0,0,0,0,0,0,0,0,0,0,1.5947,1.5949,1.6033,1.6033,1.6034,1.6066,1.6066,1.6067,1.6036,1.6034,1.6033,1.6031,1.6067,1.607,1.6072,0,0,0,0,0,0,0,0,0,0,0,0,0,1.5983,1.5949,1.6033,1.6022,1.6022,1.6066,1.6066,1.6067,1.6036,1.6034,1.6032,1.6031,1.6066,1.6069,1.6073,1.6129,0,0,1.6082,1.6084,0,0,0,0,0,0,0,0,1.5981,1.5986,1.6023,1.6023,1.6022,1.6045,1.6049,1.6088,1.6037,1.6031,1.6032,1.603,1.6062,1.6065,1.6076,1.6131,1.6133,1.6083,1.6084,1.6086,1.6087,0,0,0,0,0,0,0,1.5978,1.5984,1.6046,1.6024,1.6023,1.6017,1.602,1.6056,1.6056,1.6031,1.6029,1.6033,1.6061,1.6073,1.6076,1.6133,1.6082,1.6085,1.6087,1.6088,1.6239,1.6241,0,0,0,0,0,0,1.5977,1.5982,1.6045,1.6047,1.5996,1.602,1.6023,1.6039,1.6056,1.6057,1.6035,1.6031,1.6068,1.6073,1.6077,1.6146,1.6086,1.6089,1.6091,1.6237,1.624,1.6242,0,0,0,0,0,0,1.5975,1.5982,1.6044,1.6014,1.6021,1.6023,1.6042,1.6041,1.6052,1.6059,1.6059,1.6046,1.6067,1.6073,1.6117,1.6147,1.609,1.6093,1.6235,1.6238,1.6241,1.6284,0,0,0,0,0,0,1.5972,1.5982,1.6003,1.6015,1.6023,1.6082,1.6044,1.6043,1.6058,1.6054,1.6069,1.607,1.6066,1.6112,1.612,1.615,1.6096,1.6232,1.6236,1.624,1.628,1.6288,1.6295,0,0,0,0,0,1.597,1.6014,1.6004,1.6012,1.6049,1.6084,1.6089,1.6082,1.606,1.6082,1.6086,1.607,1.6142,1.6117,1.6126,1.6157,1.623,1.6235,1.6239,1.6277,1.6287,1.6295,0,0,0,0,0,0,1.6006,1.6015,1.6004,1.6054,1.6068,1.6078,1.6105,1.6093,1.6114,1.611,1.6102,1.6105,1.6152,1.6159,1.6131,1.6214,1.6183,1.6189,1.6208,1.6218,1.6225,1.6223,1.6098,0,0,0,0,0,1.602,1.6046,1.6053,1.6096,1.6104,1.6103,1.6118,1.6112,1.6127,1.6133,1.614,1.6156,1.6183,1.6201,1.6225,1.6281,1.6285,1.6307,1.6314,1.6321,1.6327,1.6359,1.6369,1.6257,1.6257,1.6257,0,0,1.6048,1.6057,1.6074,1.6104,1.6114,1.6143,1.6109,1.614,1.6162,1.6138,1.618,1.6186,1.6204,1.6254,1.6277,1.6261,1.6359,1.6327,1.6332,1.6335,1.6365,1.6375,1.6385,1.6261,1.626,1.6259,0,0,1.6116,1.6124,1.6161,1.6173,1.6189,1.6188,1.6197,1.621,1.6213,1.6255,1.6238,1.6264,1.631,1.6323,1.6336,1.641,1.6396,1.6418,1.6459,1.649,1.6498,1.6506,1.6534,1.6544,1.6424,1.6424,1.6424,0,1.615,1.6191,1.6182,1.6216,1.623,1.6209,1.6248,1.6259,1.6283,1.6294,1.6276,1.6333,1.6343,1.6397,1.6416,1.6426,1.6438,1.6416,1.6498,1.6505,1.6513,1.6539,1.6549,1.6427,1.6426,1.6426,1.6426,0,1.6233,1.6263,1.6291,1.6314,1.6331,1.6367,1.6365,1.6384,1.6376,1.6378,1.6422,1.6434,1.6461,1.6473,1.6466,1.6527,1.6517,1.6499,1.6467,1.6526,1.6551,1.6561,1.643,1.6429,1.6429,1.6428,0,0,1.6325,1.6342,1.6353,1.6364,1.6381,1.6404,1.6439,1.6465,1.6483,1.65,1.653,1.657,1.6553,1.6568,1.6562,1.6589,1.6649,1.6568,1.6568,1.6584,1.6719,1.6734,1.6745,1.664,1.6641,1.6643,1.6718,0,1.6394,1.6454,1.6448,1.6506,1.6534,1.6515,1.6546,1.6561,1.6564,1.6589,1.6592,1.6621,1.6596,1.6605,1.6631,1.6636,1.6676,1.663,1.667,1.6671,1.6667,1.6758,1.6774,1.6844,1.6727,1.6729,1.673,0,1.6482,1.6502,1.6564,1.6577,1.6589,1.6617,1.6641,1.6665,1.6681,1.6681,1.6698,1.6688,1.6726,1.6693,1.6745,1.6714,1.673,1.6735,1.6737,1.6742,1.6705,1.6766,1.6866,1.6877,1.6745,1.6744,1.6743,0,1.6545,1.6587,1.663,1.6639,1.6656,1.6676,1.6684,1.6699,1.6715,1.6737,1.6748,1.6773,1.6788,1.6809,1.6807,1.6782,1.686,1.6827,1.6863,1.6863,1.6881,1.688,1.6986,1.6889,1.6889,1.6889,1.6889,0,1.6623,1.6662,1.6658,1.6684,1.6728,1.672,1.6764,1.6769,1.6783,1.6811,1.6796,1.6823,1.6817,1.6845,1.6843,1.6888,1.6894,1.6897,1.6896,1.6899,1.6899,1.691,1.6906,1.6892,1.6891,1.689,1.689,0,1.6701,1.6699,1.6745,1.6757,1.6761,1.6792,1.6803,1.6829,1.683,1.6866,1.6874,1.6878,1.6909,1.6909,1.6945,1.6944,1.6999,1.6992,1.6994,1.6993,1.703,1.7027,1.7147,1.7164,1.7055,1.7056,1.7057,0,1.6751,1.6781,1.6796,1.6813,1.6823,1.6851,1.6868,1.6862,1.688,1.6902,1.6925,1.6955,1.6979,1.7031,1.7037,1.7065,1.706,1.71,1.7064,1.7066,1.7062,1.7061,1.7065,1.7107,1.7109,1.711,1.711,0,1.6843,1.6841,1.6865,1.689,1.6911,1.693,1.6948,1.6963,1.6959,1.6981,1.7013,1.7031,1.7068,1.7099,1.7126,1.7135,1.7123,1.7122,1.7132,1.7136,1.7136,1.7138,1.7014,1.7119,1.7118,1.7118,1.7117,1.7117,1.6909,1.6935,1.695,1.6978,1.6991,1.7008,1.7033,1.7038,1.7064,1.7094,1.7089,1.7125,1.7142,1.7177,1.7189,1.7218,1.7204,1.7218,1.7222,1.7226,1.7231,1.713,1.7223,1.7222,1.7222,1.7222,1.7222,0,1.7001,1.701,1.7036,1.7061,1.7084,1.7069,1.7088,1.7109,1.714,1.7157,1.7181,1.7218,1.7248,1.7257,1.7286,1.7308,1.7303,1.7316,1.7315,1.7318,1.7241,1.723,1.7319,1.7319,1.7319,1.7319,1.7319,1.7319,1.7052,1.7095,1.7095,1.7145,1.7154,1.7189,1.7201,1.7218,1.7231,1.7273,1.7298,1.7303,1.7317,1.7347,1.7375,1.7376,1.7389,1.7404,1.7404,1.7333,1.7323,1.7314,1.7303,1.7407,1.7407,1.7479,1.7479,1.748]},{"header":{"parameterUnit":"m.s-1","parameterCategory":1,"la1":30.2991,"la2":30.254,"lo1":-89.0895,"lo2":-89.0444,"dy":0.0017,"dx":0.0017,"nx":28,"ny":28,"refTime":"2024-09-29T21:00:00:Z","depth":0,"parameterNumber":3,"parameterNumberName":"V-component_of_WINDS"},"data":[0,0,0,0,0,0,0,0,0,0,0,0,0,0,0,0,0,0,0,0,0,0,0,0,0,0,0,0,0,0,0,0,0,0,0,0,0,0,0,0,0,0,0,0,0,0,0,0,0,0,0,0,0,0,0,0,0,0,-1.1675,-1.1676,0,-1.1694,-1.1694,-1.1694,-1.1683,-1.1683,-1.1682,-1.1682,-1.17,-1.1701,-1.1702,0,0,0,0,0,0,0,0,0,0,0,0,0,-1.1631,-1.1632,-1.1675,-1.1676,-1.1676,-1.1694,-1.1694,-1.1694,-1.1683,-1.1683,-1.1682,-1.1682,-1.1699,-1.1701,-1.1702,0,0,0,0,0,0,0,0,0,0,0,0,0,-1.165,-1.1632,-1.1675,-1.1673,-1.1673,-1.1694,-1.1694,-1.1694,-1.1684,-1.1683,-1.1682,-1.1681,-1.1699,-1.17,-1.1702,-1.1727,0,0,-1.1706,-1.1707,0,0,0,0,0,0,0,0,-1.1649,-1.1652,-1.1673,-1.1673,-1.1673,-1.1686,-1.1685,-1.1705,-1.1684,-1.1679,-1.1682,-1.1681,-1.1696,-1.1697,-1.1702,-1.1727,-1.1728,-1.1706,-1.1707,-1.1708,-1.1708,0,0,0,0,0,0,0,-1.1648,-1.1651,-1.1683,-1.1673,-1.1673,-1.1671,-1.1672,-1.1689,-1.1692,-1.168,-1.1679,-1.1681,-1.1695,-1.1701,-1.1703,-1.1728,-1.1706,-1.1708,-1.1709,-1.1709,-1.1776,-1.1777,0,0,0,0,0,0,-1.1646,-1.165,-1.1682,-1.1683,-1.1659,-1.1672,-1.1674,-1.1682,-1.1691,-1.1692,-1.1682,-1.1681,-1.1699,-1.1701,-1.1703,-1.1734,-1.1708,-1.1709,-1.171,-1.1775,-1.1776,-1.1777,0,0,0,0,0,0,-1.1646,-1.1649,-1.1681,-1.1666,-1.167,-1.1674,-1.1683,-1.1683,-1.1689,-1.1693,-1.1694,-1.1687,-1.1698,-1.1701,-1.1721,-1.1734,-1.171,-1.1711,-1.1774,-1.1775,-1.1777,-1.1794,0,0,0,0,0,0,-1.1644,-1.1649,-1.1659,-1.1667,-1.1671,-1.1699,-1.1684,-1.1684,-1.1691,-1.169,-1.1698,-1.1699,-1.1698,-1.1719,-1.1723,-1.1736,-1.1712,-1.1773,-1.1775,-1.1776,-1.1793,-1.1796,-1.1799,0,0,0,0,0,-1.1643,-1.1662,-1.1659,-1.1663,-1.1683,-1.17,-1.1702,-1.1701,-1.1692,-1.1702,-1.1705,-1.1699,-1.1732,-1.1721,-1.1725,-1.1739,-1.1772,-1.1774,-1.1776,-1.1791,-1.1796,-1.1799,0,0,0,0,0,0,-1.1655,-1.1663,-1.166,-1.1682,-1.1691,-1.1698,-1.171,-1.1706,-1.1716,-1.1714,-1.1712,-1.1714,-1.1735,-1.1739,-1.1727,-1.1764,-1.1751,-1.1754,-1.1761,-1.1765,-1.1768,-1.1767,-1.1714,0,0,0,0,0,-1.1661,-1.1674,-1.168,-1.17,-1.1704,-1.1706,-1.1714,-1.1712,-1.172,-1.1724,-1.1728,-1.1736,-1.1749,-1.1757,-1.1769,-1.1793,-1.1795,-1.1805,-1.1808,-1.181,-1.1813,-1.1828,-1.1832,-1.1784,-1.1784,-1.1784,0,0,-1.1672,-1.1678,-1.1686,-1.1702,-1.1708,-1.1722,-1.1709,-1.1724,-1.1735,-1.1726,-1.1745,-1.1749,-1.1758,-1.1781,-1.1791,-1.1784,-1.1827,-1.1813,-1.1815,-1.1816,-1.183,-1.1835,-1.1839,-1.1785,-1.1785,-1.1785,0,0,-1.1699,-1.1705,-1.1723,-1.1729,-1.1739,-1.1741,-1.1745,-1.1753,-1.1756,-1.1775,-1.1769,-1.1782,-1.1803,-1.181,-1.1816,-1.1848,-1.1843,-1.1852,-1.1869,-1.1883,-1.1887,-1.189,-1.1903,-1.1907,-1.1854,-1.1854,-1.1854,0,-1.1712,-1.1733,-1.1732,-1.1748,-1.1756,-1.1749,-1.1767,-1.1773,-1.1786,-1.1792,-1.1784,-1.1812,-1.1817,-1.1842,-1.185,-1.1855,-1.186,-1.1851,-1.1887,-1.189,-1.1893,-1.1905,-1.1909,-1.1856,-1.1855,-1.1855,-1.1855,0,-1.1749,-1.1763,-1.1776,-1.179,-1.1799,-1.1816,-1.1818,-1.1827,-1.1825,-1.1827,-1.1848,-1.1854,-1.1868,-1.1874,-1.1871,-1.1898,-1.1894,-1.1887,-1.1873,-1.1899,-1.191,-1.1914,-1.1857,-1.1857,-1.1856,-1.1856,0,0,-1.1784,-1.1798,-1.1803,-1.181,-1.182,-1.1832,-1.1849,-1.1862,-1.1871,-1.188,-1.1895,-1.1913,-1.1907,-1.1914,-1.1913,-1.1925,-1.1951,-1.1916,-1.1916,-1.1923,-1.1983,-1.1989,-1.1994,-1.1948,-1.1949,-1.1949,-1.1982,0,-1.1814,-1.1844,-1.1844,-1.1871,-1.1886,-1.188,-1.1895,-1.1903,-1.1906,-1.1919,-1.1922,-1.1936,-1.1925,-1.193,-1.1942,-1.1946,-1.1963,-1.1943,-1.1962,-1.1962,-1.196,-1.2,-1.2006,-1.2037,-1.1986,-1.1987,-1.1988,0,-1.1852,-1.1863,-1.1893,-1.1903,-1.1909,-1.1922,-1.1935,-1.1947,-1.1957,-1.1958,-1.1967,-1.1964,-1.1982,-1.1968,-1.1992,-1.1978,-1.1986,-1.1989,-1.199,-1.1993,-1.1977,-1.2004,-1.2046,-1.2051,-1.1994,-1.1994,-1.1993,0,-1.1876,-1.1899,-1.192,-1.1926,-1.1937,-1.1947,-1.1952,-1.1961,-1.197,-1.1981,-1.1987,-1.2,-1.2008,-1.2018,-1.2019,-1.2008,-1.2044,-1.203,-1.2046,-1.2046,-1.2054,-1.2054,-1.21,-1.2058,-1.2058,-1.2058,-1.2058,0,-1.1909,-1.1928,-1.1931,-1.1944,-1.1965,-1.1965,-1.1985,-1.199,-1.1998,-1.2012,-1.2007,-1.202,-1.202,-1.2034,-1.2035,-1.2056,-1.2059,-1.2061,-1.2061,-1.2061,-1.2061,-1.2067,-1.2065,-1.2059,-1.2059,-1.2059,-1.2058,0,-1.194,-1.1943,-1.1966,-1.1976,-1.1978,-1.1993,-1.2002,-1.2014,-1.2017,-1.2035,-1.2039,-1.2043,-1.2059,-1.2061,-1.2079,-1.208,-1.2105,-1.2103,-1.2102,-1.2102,-1.2119,-1.2117,-1.217,-1.2178,-1.213,-1.2131,-1.2131,0,-1.1962,-1.1976,-1.1988,-1.1997,-1.2003,-1.2018,-1.2027,-1.2027,-1.2037,-1.205,-1.2061,-1.2076,-1.2089,-1.2114,-1.2119,-1.2133,-1.2131,-1.2149,-1.2133,-1.2134,-1.2133,-1.2132,-1.2134,-1.2152,-1.2153,-1.2153,-1.2153,0,-1.2,-1.2001,-1.2014,-1.2029,-1.204,-1.2051,-1.2062,-1.2069,-1.2071,-1.2083,-1.2099,-1.2109,-1.2128,-1.2143,-1.2158,-1.2163,-1.2159,-1.2158,-1.2163,-1.2164,-1.2164,-1.2165,-1.2111,-1.2157,-1.2157,-1.2157,-1.2156,-1.2156,-1.2027,-1.204,-1.2051,-1.2066,-1.2074,-1.2085,-1.2097,-1.2102,-1.2116,-1.2132,-1.2131,-1.215,-1.216,-1.2178,-1.2185,-1.2199,-1.2194,-1.22,-1.2202,-1.2204,-1.2206,-1.2161,-1.2202,-1.2202,-1.2202,-1.2202,-1.2201,0,-1.2066,-1.2072,-1.2087,-1.2102,-1.2115,-1.211,-1.2122,-1.2132,-1.2149,-1.2159,-1.2171,-1.2191,-1.2206,-1.2213,-1.2228,-1.2238,-1.2237,-1.2242,-1.2242,-1.2243,-1.221,-1.2205,-1.2243,-1.2243,-1.2243,-1.2243,-1.2243,-1.2243,-1.2087,-1.2109,-1.2112,-1.2138,-1.2145,-1.2163,-1.217,-1.218,-1.2188,-1.221,-1.2223,-1.2227,-1.2236,-1.2252,-1.2266,-1.2268,-1.2274,-1.228,-1.2281,-1.225,-1.2246,-1.2242,-1.2237,-1.2282,-1.2282,-1.2314,-1.2314,-1.2314]}]]